Location: Litvinovka
(48.6667°N, 34.3500°E)
Time: 11:19:43
(UTC+00:00)

SPOT 3 Rocket - Pass Details

Date: 18 September 2020
Orbit: 780 x 794 km, 98.8° (Epoch: 25 October)

Event Time Altitude Azimuth Distance (km) Brightness Sun altitude
Exits shadow 18:22:59 36° 197° (SSW) 1,211 4.3 -24.8°
Maximum altitude 18:24:52 58° 259° (WSW) 909 4.0 -25.0°
Drops below altitude 10° 18:29:58 10° 338° (NNW) 2,345 6.7 -25.7°
Sets 18:32:20 0° 343° (NNW) 3,279 7.6 -26.0°
